TimeEST,TemperatureF,Dew PointF,Humidity,Sea Level PressureIn,VisibilityMPH,Wind Direction,Wind SpeedMPH,Gust SpeedMPH,PrecipitationIn,Events,Conditions,WindDirDegrees,DateUTC
12:45 AM,57.2,55.4,94,30.20,10.0,NE,5.8,-,N/A,,Partly Cloudy,50,2012-12-01 05:45:00
12:53 AM,57.9,55.9,93,30.20,10.0,NE,5.8,-,N/A,,Clear,50,2012-12-01 05:53:00
1:53 AM,57.0,54.0,89,30.20,10.0,NNE,6.9,-,N/A,,Clear,30,2012-12-01 06:53:00
2:53 AM,55.9,53.1,90,30.19,10.0,NE,5.8,-,N/A,,Clear,40,2012-12-01 07:53:00
3:53 AM,55.0,52.0,89,30.19,10.0,NE,4.6,-,N/A,,Clear,40,2012-12-01 08:53:00
5:53 AM,54.0,51.1,90,30.20,10.0,NE,4.6,-,N/A,,Clear,40,2012-12-01 10:53:00
6:53 AM,54.0,52.0,93,30.21,10.0,NE,6.9,-,0.01,,Clear,40,2012-12-01 11:53:00
7:53 AM,59.0,55.0,87,30.22,10.0,NE,5.8,-,N/A,,Clear,40,2012-12-01 12:53:00
8:53 AM,66.0,60.1,81,30.25,10.0,NE,8.1,-,N/A,,Clear,40,2012-12-01 13:53:00
9:53 AM,75.0,60.1,60,30.26,10.0,NE,11.5,-,N/A,,Clear,40,2012-12-01 14:53:00
10:53 AM,78.1,57.9,50,30.25,10.0,NE,13.8,-,N/A,,Clear,50,2012-12-01 15:53:00
11:53 AM,80.1,57.0,45,30.24,10.0,NE,12.7,20.7,N/A,,Partly Cloudy,50,2012-12-01 16:53:00
1:53 PM,81.0,57.0,44,30.18,10.0,NE,15.0,20.7,N/A,,Scattered Clouds,50,2012-12-01 18:53:00
2:53 PM,78.1,59.0,52,30.17,10.0,ENE,13.8,-,N/A,,Partly Cloudy,60,2012-12-01 19:53:00
3:53 PM,79.0,59.0,50,30.17,10.0,East,15.0,21.9,N/A,,Scattered Clouds,90,2012-12-01 20:53:00
4:53 PM,77.0,59.0,54,30.18,10.0,East,8.1,-,N/A,,Partly Cloudy,100,2012-12-01 21:53:00
5:53 PM,69.1,57.9,68,30.19,10.0,ENE,5.8,-,N/A,,Mostly Cloudy,60,2012-12-01 22:53:00
6:53 PM,68.0,57.9,70,30.20,10.0,ENE,6.9,-,N/A,,Partly Cloudy,60,2012-12-01 23:53:00
7:53 PM,64.9,57.9,78,30.22,10.0,ENE,6.9,-,N/A,,Clear,60,2012-12-02 00:53:00
8:53 PM,62.1,57.0,84,30.23,10.0,ENE,6.9,-,N/A,,Clear,70,2012-12-02 01:53:00
9:53 PM,61.0,57.0,87,30.24,10.0,NNE,4.6,-,N/A,,Clear,30,2012-12-02 02:53:00
10:53 PM,60.1,57.0,90,30.25,10.0,NE,5.8,-,N/A,,Clear,40,2012-12-02 03:53:00
11:53 PM,60.1,57.0,90,30.24,10.0,NE,5.8,-,N/A,,Clear,50,2012-12-02 04:53:00